Temp
60 60 59 58 58 58 59 59 59 59 59 59 58 58 56 54 53 50 50 53 53 60 61 60 64 66 65 63 64 65 64 66 66 65 64 64 65 63 63 63 65 67 67 68 70 71 72 72 71 71 71 70 70 70 71 71 71 71 71 71 69 67 65 66 68 68 67 67 68 68 69 68 68 68
59 59 58 58 57 58 58 58 58 58 58 57 57 57 56 55 54 51 51 52 55 56 59 61 60 63 62 63 64 64 63 65 65 64 64 64 64 63 63 62 62 63 63 63 65 67 70 71 71 70 70 70 70 69 69 69 69 70 69 68 65 63 65 67 68 68 67 67 68 69 68 68 68 68
59 57 57 57 56 57 57 57 57 57 57 56 56 55 56 55 54 52 49 48 54 55 56 58 61 58 60 63 62 63 63 63 64 62 62 63 63 63 63 63 62 61 59 60 60 59 63 67 68 69 68 68 67 67 67 66 66 64 62 61 62 62 63 66 67 67 67 67 68 68 68 68 68 68
57 57 56 55 55 55 56 56 56 56 56 56 56 55 55 54 54 52 50 49 53 54 54 55 59 60 60 61 60 60 60 62 63 61 61 62 62 62 61 62 61 60 58 58 58 57 59 61 63 64 64 65 65 63 62 63 61 59 60 61 61 60 62 63 64 64 64 66 67 67 68 68 68 68
56 55 55 55 55 55 55 55 55 55 55 55 55 55 54 54 54 53 52 50 51 55 55 55 56 59 60 59 59 58 58 59 60 61 60 60 60 60 60 60 60 59 58 58 58 58 57 58 58 58 61 63 60 57 58 56 55 58 59 59 58 57 57 59 61 62 63 64 65 66 66 67 67 68
55 54 54 54 54 54 54 54 55 54 54 54 54 53 53 53 53 53 52 50 49 49 54 55 57 56 59 56 58 56 56 56 58 58 59 59 60 59 59 59 60 59 58 57 57 57 57 57 56 56 60 61 57 55 55 55 54 55 56 55 55 55 54 55 57 59 61 62 64 64 65 65 66 65
53 54 53 52 52 54 53 53 53 53 53 54 53 53 53 52 52 53 51 50 49 50 51 53 54 54 55 55 56 57 57 56 56 56 57 58 58 59 58 58 59 59 58 57 57 57 57 57 56 56 57 57 56 56 56 55 54 54 54 54 54 53 53 53 55 57 58 59 61 62 63 62 62 62
53 53 52 51 51 52 52 51 51 51 51 52 52 52 52 51 52 52 52 51 49 48 50 52 52 54 52 53 56 56 56 55 55 55 55 57 56 56 56 56 57 58 58 58 58 57 57 57 56 56 56 55 55 55 55 54 54 54 54 53 53 52 52 53 53 54 54 53 53 55 56 55 56 57
53 53 52 51 50 50 51 49 50 50 50 51 52 51 51 51 51 51 51 50 50 50 49 50 52 52 53 53 54 55 52 53 53 53 53 54 54 54 54 55 57 58 58 57 57 57 57 57 56 56 55 54 55 55 55 55 54 54 54 53 52 52 52 52 52 51 51 50 50 50 50 51 52 54
53 53 52 52 51 51 50 49 49 49 49 50 51 51 51 50 50 49 49 49 49 48 47 47 49 50 50 50 50 52 51 50 50 50 50 49 52 51 51 53 55 56 57 56 57 56 56 56 56 55 54 55 55 55 55 55 56 56 55 54 53 53 53 52 51 51 50 50 49 49 48 49 50 51
52 52 53 52 52 51 50 50 49 49 49 51 49 51 50 49 49 49 48 48 47 47 47 47 46 47 49 48 48 49 50 50 49 48 49 49 50 50 49 50 53 54 55 56 57 57 57 57 57 55 55 55 55 55 55 55 56 56 55 54 53 53 53 52 52 51 50 50 49 48 47 47 48 49
53 52 52 51 52 52 50 50 50 49 49 49 49 49 50 49 49 48 47 47 45 45 46 44 46 45 46 45 47 50 48 48 48 49 47 46 47 48 49 49 49 52 53 52 53 56 56 56 56 55 55 55 56 55 55 55 56 56 54 53 53 52 52 52 51 51 50 50 50 50 48 47 47 47
53 52 52 52 53 59 61 61 59 58 57 51 50 49 49 49 48 48 48 47 45 45 46 45 46 44 45 45 46 47 45 45 46 46 46 46 47 46 48 50 49 50 50 50 51 52 52 52 52 52 52 54 56 54 55 55 56 55 53 52 52 52 52 52 51 50 50 50 50 50 49 49 48 47
52 51 51 56 62 62 61 59 57 55 57 59 55 50 48 49 49 47 47 46 46 47 44 44 44 44 44 44 45 46 45 45 45 46 46 45 45 45 46 49 48 51 50 49 49 50 52 51 50 50 50 52 54 52 52 53 53 53 52 51 51 52 52 51 51 51 50 49 49 49 49 49 48 47
52 51 50 50 56 55 55 55 57 54 54 53 54 55 56 56 52 48 46 45 44 45 45 44 44 43 43 46 46 45 46 45 46 45 43 46 45 42 42 42 47 51 49 48 46 48 50 50 48 49 49 50 51 52 52 52 52 52 51 51 51 51 51 51 51 51 51 50 49 49 48 48 48 47
52 51 51 51 52 52 51 49 50 55 55 53 53 53 49 47 48 50 50 48 45 43 43 44 43 43 44 45 46 46 46 46 45 44 44 44 42 42 41 41 41 48 49 46 45 45 49 48 48 47 49 50 51 52 52 52 52 51 50 51 51 50 50 50 50 50 50 50 50 49 48 47 47 47
52 52 52 51 49 51 56 52 47 47 50 55 56 55 53 50 46 39 40 46 50 45 43 43 44 44 45 45 47 49 49 46 44 44 45 44 43 42 41 41 42 47 48 45 43 43 46 46 46 46 49 50 50 51 52 52 51 51 50 51 50 50 50 50 50 50 50 50 50 49 48 47 47 47
51 52 53 51 49 46 46 46 46 47 47 47 48 48 47 47 50 51 51 50 50 52 46 44 45 46 47 45 46 49 46 46 46 44 45 44 43 43 43 45 44 47 49 45 42 41 43 46 45 45 48 49 49 50 51 51 51 50 50 51 50 50 50 50 49 49 49 49 49 49 49 48 47 46
52 52 52 51 47 45 46 49 48 46 46 47 47 46 46 45 45 45 47 47 47 48 46 46 45 46 46 46 46 45 46 48 47 47 46 46 46 44 42 42 44 46 47 45 43 41 43 42 42 44 46 47 48 49 50 51 51 51 50 50 50 49 49 49 49 49 49 49 49 49 49 48 47 46
51 50 49 48 46 45 44 49 48 50 46 46 45 45 43 44 44 45 52 48 48 49 46 46 46 45 45 47 45 47 46 46 47 49 46 45 42 43 40 41 42 43 47 45 43 41 42 42 42 43 45 45 45 48 48 50 51 50 50 50 49 49 49 49 49 49 49 49 48 48 48 47 47 46
51 49 48 47 45 44 44 46 43 45 50 44 44 44 42 43 44 46 47 49 47 46 46 45 45 45 44 44 43 43 45 46 48 44 44 42 41 40 38 41 41 40 43 41 44 42 39 42 41 42 43 44 44 45 46 48 50 50 49 49 49 49 49 49 49 49 49 48 48 48 48 47 47 47
50 53 57 52 46 45 45 43 43 45 48 43 42 43 42 43 42 43 44 47 49 48 47 47 46 46 45 46 45 42 42 45 50 46 42 43 41 43 41 38 39 40 42 44 45 41 39 41 41 40 41 41 42 45 45 48 49 49 49 49 49 48 49 49 49 48 48 48 47 47 47 47 47 48
52 55 56 56 50 47 46 38 43 45 48 43 42 42 41 42 42 43 42 43 45 46 46 47 49 48 50 48 48 49 49 51 55 46 45 43 42 40 40 41 39 38 39 45 44 41 40 41 41 40 40 39 42 43 45 46 47 47 48 48 48 49 49 49 49 48 48 47 47 47 47 47 47 48
51 51 51 53 46 45 40 38 41 44 45 43 42 41 41 43 44 42 42 47 46 43 44 44 45 45 44 43 43 43 44 49 49 46 43 43 43 41 40 41 40 38 38 42 44 40 39 40 40 41 40 37 37 42 44 44 46 46 46 47 46 49 50 49 48 47 47 47 47 47 47 47 47 47
51 51 49 48 47 42 41 41 40 42 43 47 43 41 41 42 45 44 42 46 50 44 45 45 45 45 43 43 44 44 46 47 47 45 44 43 42 43 43 38 39 38 39 44 45 41 39 40 39 38 38 37 38 39 42 42 44 44 47 46 45 47 46 46 46 45 45 46 46 46 46 46 47 46
51 50 49 47 48 42 41 41 41 41 41 40 46 43 43 43 41 43 46 44 44 43 46 43 43 43 41 41 43 45 45 45 46 44 42 42 42 44 43 41 41 38 40 45 44 42 39 40 40 39 38 38 38 40 39 40 42 43 44 45 45 45 45 44 42 44 44 44 44 45 46 46 46 47
51 50 48 49 52 42 41 41 40 41 40 45 44 42 41 42 40 44 44 43 42 43 42 44 44 41 40 42 40 41 40 42 42 42 42 42 42 43 45 44 42 41 43 44 47 45 41 39 42 40 39 38 37 38 38 37 40 44 43 44 45 45 44 41 42 43 43 43 44 46 46 46 46 46
51 49 47 48 47 43 42 41 40 40 43 42 42 41 41 40 43 43 42 40 42 42 41 40 41 41 39 38 38 39 41 40 40 42 42 41 41 40 41 41 44 45 45 45 45 44 43 41 41 41 40 38 37 36 36 40 42 42 41 43 43 44 44 42 41 43 43 42 42 43 42 43 44 45
51 47 45 43 41 42 42 41 40 41 43 41 40 40 40 48 40 41 40 41 42 40 41 40 39 38 40 39 40 39 38 39 41 40 42 41 41 41 40 40 41 42 45 45 44 43 42 41 41 41 40 39 38 38 38 37 39 40 42 41 38 42 43 43 41 40 41 41 42 42 41 41 41 43
47 45 44 41 39 40 40 42 42 42 42 43 43 44 47 41 39 39 40 41 40 39 39 40 39 39 38 39 38 40 38 39 38 38 39 37 39 39 39 39 40 40 41 42 43 42 42 42 41 40 39 40 40 38 38 38 38 40 41 40 40 41 39 41 40 40 41 41 41 42 41 41 42 43
47 46 46 44 42 43 44 44 44 44 45 43 45 42 43 41 41 41 40 40 41 40 39 39 38 38 38 39 38 39 37 37 37 38 39 37 36 39 36 36 37 38 40 40 41 41 41 41 42 40 38 38 39 39 39 39 37 38 40 40 40 37 40 40 40 40 39 41 41 40 40 40 42 44
49 47 47 44 43 44 44 44 43 44 44 42 42 41 41 43 44 49 49 46 37 37 36 36 37 37 36 36 37 38 37 36 37 38 37 38 36 37 37 35 35 36 37 39 39 40 44 43 41 41 40 39 37 38 39 38 38 37 38 40 41 40 41 41 41 41 41 40 40 40 41 40 40 41
47 44 43 42 43 43 46 43 44 41 41 41 41 42 41 40 39 39 37 38 37 35 36 36 36 36 36 36 36 35 37 37 36 36 36 36 36 37 35 34 35 35 35 37 39 40 39 40 43 41 41 40 40 39 37 36 38 39 38 38 39 39 40 41 41 41 41 40 39 39 40 40 40 40
42 41 40 40 42 43 42 41 40 40 39 41 41 39 40 38 38 37 37 36 36 36 36 36 35 35 35 34 33 35 34 35 34 35 36 35 36 33 33 34 34 35 36 36 36 37 38 39 39 40 40 40 41 39 39 37 36 38 38 38 38 38 40 40 40 40 40 38 37 37 38 39 40 38
40 40 42 42 41 41 40 41 40 39 39 39 39 38 38 37 37 37 36 36 35 35 35 34 34 34 33 33 33 34 34 35 33 32 34 33 35 33 33 32 33 35 35 35 35 36 37 37 37 36 36 35 35 33 40 39 37 37 37 37 38 37 38 39 40 39 39 38 37 36 37 38 38 39
40 41 41 40 41 40 40 41 40 40 39 39 40 40 38 38 36 38 38 36 34 34 33 33 33 34 33 33 33 33 33 34 32 32 32 32 33 33 32 32 34 34 34 33 34 35 36 36 35 33 31 32 31 30 32 42 42 38 35 35 37 37 37 37 38 38 37 37 37 36 34 34 36 38
41 40 40 41 40 41 41 40 40 41 40 39 38 38 37 37 37 37 35 35 34 35 35 33 33 32 33 33 33 33 33 32 32 31 31 32 31 31 31 32 33 33 32 33 34 35 35 34 34 31 30 30 28 27 31 36 40 42 37 35 35 36 36 36 35 35 36 36 36 35 35 34 35 37
42 39 40 40 41 41 40 39 39 40 39 38 38 37 37 36 36 35 34 35 34 33 34 32 32 32 32 32 31 31 30 31 31 31 31 31 30 30 30 30 31 31 32 33 33 34 33 32 32 31 30 28 27 28 29 34 35 37 41 38 35 35 36 34 33 33 34 36 35 36 36 35 35 37
40 41 41 40 39 41 41 40 40 39 38 37 37 37 37 35 34 33 34 34 33 33 31 31 31 32 32 31 32 31 31 30 29 30 30 30 30 29 30 30 30 31 31 31 32 32 31 30 32 32 31 30 29 31 33 32 31 36 39 42 38 36 36 35 33 34 34 34 35 36 37 38 40 41
40 40 40 40 40 40 40 41 39 39 39 38 37 36 36 34 33 33 32 34 33 33 32 32 33 33 30 31 30 31 30 30 29 29 29 29 29 30 29 30 30 30 30 30 30 31 31 32 32 33 34 35 36 37 37 36 35 36 36 38 41 39 37 37 35 35 34 36 35 34 34 35 34 36
40 40 39 41 41 40 40 39 40 38 38 37 37 38 35 34 34 33 32 31 31 31 31 32 31 30 29 29 30 29 30 29 30 29 29 29 30 31 31 30 29 29 28 28 29 29 31 33 35 35 35 37 39 39 35 31 29 31 32 34 39 40 41 40 38 36 35 36 36 35 33 33 33 33
42 41 40 39 41 41 40 39 38 39 39 38 36 35 34 34 34 38 35 33 30 29 30 30 28 28 29 30 30 29 28 29 28 28 28 28 28 28 29 29 28 28 28 27 28 30 33 35 36 37 38 38 35 31 28 29 28 30 32 33 34 38 39 40 40 40 38 37 35 33 33 33 34 33
42 42 41 40 40 40 39 39 38 38 38 37 35 34 34 33 33 32 31 31 29 29 30 29 28 28 30 29 28 29 29 27 28 27 27 27 27 27 27 27 28 28 28 28 30 31 32 34 36 36 36 35 33 32 29 29 30 30 31 31 32 33 35 38 39 39 40 40 40 39 38 35 32 29
42 42 41 40 40 39 37 38 38 38 38 36 34 33 33 32 32 33 31 29 29 29 28 30 29 29 29 29 28 28 27 28 27 27 27 26 26 26 25 26 26 27 27 28 28 30 31 33 35 35 33 31 32 31 30 30 29 30 30 31 32 32 31 33 34 37 38 39 39 39 40 40 40 40
42 42 40 39 39 38 38 37 36 35 34 33 33 33 31 31 31 30 29 30 30 29 28 28 29 28 28 28 27 26 27 30 29 26 25 25 25 25 25 25 25 26 26 27 27 28 30 31 33 34 32 31 32 31 31 31 30 30 30 30 30 31 31 31 31 31 32 33 37 39 39 40 40 40
MSLP
1017.14 1017.22 1017.30 1017.38 1017.42 1017.42 1017.26 1017.22 1017.22 1017.18 1017.18 1017.26 1017.30 1017.30 1017.30 1017.34 1017.66 1018.22 1018.46 1018.34 1018.22 1017.50 1017.30 1017.42 1016.78 1016.62 1016.54 1016.46 1016.50 1016.50 1016.54 1016.42 1016.22 1016.26 1016.26 1016.26 1016.18 1016.14 1016.02 1015.86 1015.74 1015.58 1015.46 1015.30 1015.14 1015.10 1015.06 1014.98 1014.94 1014.90 1014.86 1014.78 1014.66 1014.54 1014.46 1014.30 1014.26 1014.14 1014.10 1014.06 1014.10 1014.14 1014.14 1014.14 1014.10 1014.02 1013.98 1013.94 1013.94 1013.98 1014.02 1013.94 1013.82 1013.86
1017.46 1017.54 1017.58 1017.66 1017.74 1017.74 1017.58 1017.62 1017.54 1017.54 1017.62 1017.62 1017.66 1017.70 1017.70 1017.58 1017.66 1017.90 1018.26 1018.42 1018.02 1017.86 1017.34 1017.34 1017.58 1017.22 1017.10 1016.90 1016.90 1016.94 1017.02 1016.90 1016.70 1016.70 1016.70 1016.66 1016.58 1016.38 1016.26 1016.18 1016.10 1015.94 1015.78 1015.62 1015.46 1015.34 1015.26 1015.18 1015.10 1015.02 1014.94 1014.82 1014.70 1014.58 1014.46 1014.34 1014.18 1014.06 1014.02 1013.98 1013.94 1013.98 1014.02 1014.02 1013.98 1013.90 1013.86 1013.78 1013.74 1013.70 1013.70 1013.66 1013.58 1013.54
1017.82 1017.90 1018.02 1018.02 1018.06 1018.02 1017.94 1017.86 1017.82 1017.82 1017.86 1017.98 1017.98 1018.02 1017.94 1017.98 1017.94 1017.82 1017.94 1018.34 1018.30 1018.14 1018.26 1017.98 1017.74 1017.74 1017.58 1017.34 1017.34 1017.34 1017.34 1017.30 1017.14 1017.10 1017.06 1016.94 1016.78 1016.58 1016.50 1016.46 1016.46 1016.38 1016.26 1016.06 1015.86 1015.70 1015.58 1015.46 1015.34 1015.22 1015.10 1014.98 1014.86 1014.66 1014.50 1014.38 1014.26 1014.18 1014.10 1014.10 1014.02 1013.94 1013.90 1013.86 1013.82 1013.78 1013.70 1013.62 1013.54 1013.46 1013.42 1013.38 1013.34 1013.26
1018.22 1018.26 1018.38 1018.42 1018.38 1018.34 1018.18 1018.22 1018.18 1018.14 1018.14 1018.10 1018.14 1018.22 1018.18 1018.26 1018.30 1018.10 1018.14 1018.46 1018.82 1018.62 1018.66 1018.42 1018.14 1017.90 1017.86 1017.58 1017.62 1017.74 1017.66 1017.54 1017.42 1017.42 1017.34 1017.26 1017.02 1016.94 1016.82 1016.66 1016.62 1016.50 1016.46 1016.34 1016.18 1016.06 1015.94 1015.78 1015.58 1015.34 1015.14 1014.98 1014.86 1014.78 1014.66 1014.50 1014.34 1014.26 1014.14 1014.06 1013.98 1013.90 1013.86 1013.82 1013.78 1013.74 1013.70 1013.58 1013.42 1013.30 1013.18 1013.14 1013.10 1013.02
1018.54 1018.62 1018.70 1018.74 1018.74 1018.58 1018.46 1018.66 1018.58 1018.46 1018.42 1018.34 1018.42 1018.46 1018.42 1018.42 1018.46 1018.30 1018.26 1018.54 1018.90 1018.70 1018.62 1018.50 1018.54 1018.34 1018.06 1018.02 1018.10 1018.06 1018.06 1017.90 1017.78 1017.62 1017.58 1017.46 1017.38 1017.34 1017.22 1017.02 1016.82 1016.70 1016.58 1016.46 1016.30 1016.22 1016.06 1015.90 1015.78 1015.58 1015.34 1015.10 1014.94 1014.78 1014.62 1014.50 1014.42 1014.34 1014.22 1014.10 1013.98 1013.86 1013.78 1013.74 1013.66 1013.62 1013.54 1013.46 1013.30 1013.14 1013.02 1012.94 1012.86 1012.78
1018.90 1018.90 1018.86 1018.98 1018.94 1018.82 1018.78 1018.86 1018.86 1018.86 1018.70 1018.70 1018.66 1018.78 1018.78 1018.82 1018.78 1018.74 1018.50 1018.82 1018.94 1019.18 1018.86 1018.70 1018.66 1018.62 1018.50 1018.66 1018.58 1018.58 1018.50 1018.42 1018.18 1017.94 1017.86 1017.78 1017.74 1017.70 1017.54 1017.34 1017.14 1016.98 1016.82 1016.66 1016.50 1016.34 1016.22 1016.06 1015.82 1015.62 1015.38 1015.14 1014.98 1014.78 1014.62 1014.46 1014.34 1014.26 1014.14 1014.06 1014.02 1013.90 1013.78 1013.70 1013.58 1013.50 1013.42 1013.30 1013.18 1013.02 1012.90 1012.78 1012.74 1012.66
1019.18 1019.14 1019.18 1019.26 1019.18 1019.02 1018.94 1019.10 1019.14 1019.10 1019.06 1018.98 1019.02 1019.14 1019.14 1019.10 1019.10 1019.02 1018.94 1018.82 1019.14 1019.18 1019.30 1019.22 1019.02 1018.98 1018.98 1019.10 1019.14 1018.90 1018.82 1018.82 1018.66 1018.46 1018.26 1018.14 1017.98 1017.82 1017.74 1017.54 1017.34 1017.10 1017.02 1016.86 1016.74 1016.54 1016.38 1016.18 1015.94 1015.70 1015.54 1015.34 1015.14 1014.86 1014.58 1014.42 1014.30 1014.22 1014.10 1013.98 1013.90 1013.82 1013.74 1013.66 1013.54 1013.42 1013.34 1013.26 1013.14 1012.94 1012.78 1012.66 1012.62 1012.58
1019.30 1019.34 1019.38 1019.54 1019.46 1019.34 1019.26 1019.42 1019.42 1019.42 1019.34 1019.26 1019.26 1019.30 1019.46 1019.42 1019.46 1019.42 1019.30 1019.22 1019.30 1019.54 1019.50 1019.50 1019.50 1019.34 1019.26 1019.34 1019.30 1019.18 1019.06 1019.02 1018.90 1018.86 1018.70 1018.46 1018.38 1018.30 1018.14 1017.98 1017.74 1017.42 1017.18 1016.94 1016.74 1016.54 1016.34 1016.14 1015.94 1015.78 1015.62 1015.54 1015.42 1015.18 1014.90 1014.66 1014.42 1014.26 1014.14 1014.02 1013.94 1013.78 1013.70 1013.58 1013.42 1013.34 1013.26 1013.18 1013.18 1013.06 1012.94 1012.82 1012.70 1012.58
1019.30 1019.38 1019.42 1019.58 1019.58 1019.54 1019.46 1019.62 1019.62 1019.62 1019.50 1019.50 1019.38 1019.46 1019.62 1019.66 1019.82 1019.82 1019.78 1019.82 1019.74 1019.74 1019.86 1019.90 1019.78 1019.74 1019.62 1019.62 1019.58 1019.42 1019.34 1019.26 1019.14 1019.02 1018.90 1018.82 1018.74 1018.62 1018.54 1018.30 1018.06 1017.78 1017.50 1017.26 1016.98 1016.78 1016.62 1016.38 1016.14 1015.90 1015.78 1015.74 1015.58 1015.34 1015.06 1014.86 1014.74 1014.58 1014.38 1014.18 1013.98 1013.82 1013.66 1013.50 1013.38 1013.26 1013.14 1013.10 1013.02 1012.98 1012.86 1012.78 1012.66 1012.50
1019.26 1019.34 1019.46 1019.54 1019.54 1019.50 1019.50 1019.66 1019.70 1019.62 1019.58 1019.58 1019.46 1019.50 1019.66 1019.78 1019.86 1019.94 1020.10 1020.14 1020.10 1020.06 1020.26 1020.30 1020.14 1019.98 1020.02 1019.86 1019.70 1019.62 1019.58 1019.58 1019.50 1019.34 1019.22 1019.02 1018.90 1018.86 1018.74 1018.54 1018.34 1018.14 1017.94 1017.66 1017.34 1017.10 1016.86 1016.70 1016.46 1016.26 1016.10 1015.94 1015.70 1015.46 1015.26 1015.02 1014.82 1014.66 1014.50 1014.30 1014.06 1013.82 1013.58 1013.38 1013.22 1013.10 1013.02 1012.94 1012.86 1012.78 1012.66 1012.54 1012.46 1012.34
1019.38 1019.46 1019.50 1019.58 1019.62 1019.66 1019.74 1019.74 1019.74 1019.70 1019.70 1019.70 1019.70 1019.66 1019.70 1019.86 1019.86 1020.02 1020.22 1020.30 1020.30 1020.34 1020.34 1020.38 1020.46 1020.38 1020.18 1020.10 1019.90 1019.70 1019.62 1019.50 1019.50 1019.50 1019.18 1019.06 1019.10 1019.06 1019.06 1018.78 1018.50 1018.38 1018.14 1017.86 1017.58 1017.38 1017.14 1016.90 1016.70 1016.58 1016.38 1016.18 1015.94 1015.66 1015.38 1015.14 1014.98 1014.78 1014.58 1014.34 1014.06 1013.82 1013.58 1013.34 1013.14 1012.98 1012.86 1012.74 1012.62 1012.54 1012.42 1012.34 1012.22 1012.10
1019.38 1019.46 1019.50 1019.54 1019.62 1019.70 1019.82 1019.86 1019.86 1019.78 1019.74 1019.82 1019.82 1019.90 1019.82 1019.90 1019.94 1020.10 1020.26 1020.34 1020.46 1020.42 1020.38 1020.46 1020.42 1020.46 1020.38 1020.18 1020.02 1019.78 1019.66 1019.54 1019.42 1019.62 1019.66 1019.46 1019.22 1019.10 1019.10 1019.06 1018.82 1018.50 1018.34 1018.14 1017.86 1017.58 1017.30 1017.06 1016.86 1016.66 1016.50 1016.30 1016.10 1015.90 1015.62 1015.34 1015.10 1014.86 1014.70 1014.42 1014.14 1013.82 1013.54 1013.30 1013.14 1013.02 1012.82 1012.62 1012.46 1012.30 1012.18 1012.10 1011.98 1011.86
1019.46 1019.46 1019.46 1019.46 1019.50 1019.46 1019.62 1019.70 1019.74 1019.74 1019.74 1019.78 1019.82 1019.94 1019.90 1019.90 1020.02 1020.18 1020.34 1020.42 1020.34 1020.34 1020.30 1020.30 1020.38 1020.26 1020.10 1020.02 1019.94 1019.74 1019.66 1019.66 1019.82 1019.82 1019.90 1019.82 1019.86 1019.74 1019.26 1018.90 1018.74 1018.74 1018.66 1018.42 1018.18 1017.90 1017.86 1017.74 1017.54 1017.34 1017.02 1016.66 1016.26 1015.94 1015.74 1015.46 1015.18 1015.02 1014.86 1014.58 1014.26 1013.94 1013.58 1013.38 1013.18 1012.98 1012.78 1012.58 1012.38 1012.18 1011.98 1011.90 1011.78 1011.66
1019.66 1019.66 1019.66 1019.58 1019.54 1019.62 1019.70 1019.90 1019.98 1019.90 1019.82 1019.86 1019.94 1020.06 1020.02 1020.06 1020.22 1020.38 1020.46 1020.54 1020.58 1020.46 1020.42 1020.50 1020.42 1020.34 1020.26 1020.18 1020.14 1020.06 1019.82 1019.82 1019.86 1019.70 1019.90 1020.02 1020.06 1019.86 1019.66 1019.10 1018.82 1018.70 1018.62 1018.50 1018.30 1018.10 1017.98 1017.98 1017.82 1017.66 1017.50 1017.14 1016.74 1016.34 1015.94 1015.74 1015.58 1015.30 1014.98 1014.70 1014.42 1014.10 1013.78 1013.54 1013.30 1013.06 1012.78 1012.54 1012.30 1012.06 1011.86 1011.70 1011.54 1011.42
1019.86 1019.94 1019.98 1019.98 1020.02 1020.06 1020.10 1020.10 1020.02 1019.94 1019.98 1020.02 1020.06 1020.14 1020.22 1020.30 1020.30 1020.50 1020.54 1020.70 1020.78 1020.74 1020.78 1020.82 1020.66 1020.62 1020.54 1020.34 1020.26 1020.14 1019.86 1019.70 1019.90 1019.98 1020.18 1020.22 1020.22 1020.30 1020.26 1019.90 1019.10 1018.62 1018.82 1018.78 1018.66 1018.26 1017.98 1017.90 1017.86 1017.70 1017.54 1017.34 1017.02 1016.62 1016.22 1015.86 1015.62 1015.38 1015.10 1014.78 1014.46 1014.22 1013.90 1013.62 1013.38 1013.06 1012.74 1012.46 1012.18 1011.98 1011.78 1011.54 1011.34 1011.18
1019.90 1020.02 1020.06 1020.18 1020.18 1020.26 1020.38 1020.38 1020.30 1020.22 1020.22 1020.26 1020.30 1020.30 1020.46 1020.62 1020.66 1020.66 1020.66 1020.74 1020.86 1021.02 1021.02 1020.86 1020.94 1020.82 1020.74 1020.54 1020.30 1020.10 1019.94 1019.82 1019.98 1020.22 1020.34 1020.38 1020.42 1020.42 1020.30 1020.14 1019.94 1019.10 1018.98 1018.90 1018.78 1018.58 1018.22 1018.18 1018.06 1017.86 1017.54 1017.26 1017.02 1016.70 1016.30 1015.94 1015.66 1015.42 1015.14 1014.74 1014.42 1014.18 1013.90 1013.62 1013.34 1013.02 1012.66 1012.30 1011.98 1011.74 1011.62 1011.46 1011.30 1011.06
1019.82 1019.94 1019.98 1020.14 1020.38 1020.50 1020.50 1020.58 1020.58 1020.46 1020.46 1020.50 1020.54 1020.62 1020.70 1020.78 1020.82 1020.94 1021.02 1020.98 1020.94 1021.10 1021.18 1021.06 1020.74 1020.90 1020.90 1020.66 1020.30 1020.22 1020.14 1020.10 1020.18 1020.30 1020.34 1020.34 1020.22 1020.26 1020.18 1019.98 1019.74 1019.18 1019.06 1018.98 1018.90 1018.74 1018.34 1018.26 1018.18 1017.98 1017.58 1017.34 1017.02 1016.62 1016.18 1015.82 1015.58 1015.34 1015.06 1014.62 1014.34 1014.10 1013.82 1013.54 1013.26 1012.94 1012.58 1012.18 1011.90 1011.66 1011.46 1011.26 1011.06 1010.86
1019.78 1019.74 1019.62 1019.82 1020.22 1020.62 1020.66 1020.70 1020.62 1020.58 1020.58 1020.62 1020.70 1020.78 1020.86 1020.86 1020.86 1020.86 1020.82 1020.94 1020.98 1021.02 1021.14 1021.10 1020.86 1020.70 1020.86 1020.74 1020.50 1020.34 1020.22 1020.10 1020.26 1020.30 1020.26 1020.18 1020.06 1020.02 1019.90 1019.78 1019.70 1019.26 1019.02 1019.06 1019.06 1018.90 1018.58 1018.34 1018.22 1017.98 1017.54 1017.22 1016.94 1016.66 1016.22 1015.86 1015.54 1015.30 1015.02 1014.62 1014.34 1014.06 1013.74 1013.46 1013.18 1012.86 1012.54 1012.26 1011.98 1011.70 1011.38 1011.14 1010.90 1010.66
1019.54 1019.46 1019.58 1019.82 1020.18 1020.50 1020.62 1020.74 1020.62 1020.46 1020.58 1020.62 1020.66 1020.66 1020.66 1020.70 1020.74 1020.82 1020.90 1020.98 1021.02 1020.98 1021.02 1020.98 1020.90 1020.74 1020.66 1020.58 1020.46 1020.38 1020.14 1019.98 1020.02 1020.02 1019.98 1019.90 1019.94 1020.02 1019.94 1019.74 1019.46 1019.30 1018.98 1019.10 1019.14 1019.30 1018.74 1018.42 1018.34 1018.06 1017.66 1017.22 1016.94 1016.62 1016.26 1015.94 1015.66 1015.34 1015.02 1014.70 1014.38 1014.06 1013.70 1013.42 1013.10 1012.82 1012.54 1012.22 1011.98 1011.66 1011.30 1010.94 1010.66 1010.42
1019.42 1019.50 1019.66 1019.86 1020.14 1020.38 1020.54 1020.66 1020.58 1020.58 1020.62 1020.54 1020.58 1020.62 1020.66 1020.66 1020.74 1020.82 1020.98 1021.06 1020.98 1020.98 1020.94 1020.86 1020.78 1020.78 1020.78 1020.54 1020.42 1020.14 1019.98 1020.02 1020.06 1019.98 1019.94 1019.90 1019.98 1019.98 1019.94 1019.94 1019.62 1019.50 1019.06 1019.18 1019.18 1019.22 1018.86 1018.46 1018.38 1018.02 1017.62 1017.38 1017.06 1016.62 1016.38 1016.06 1015.78 1015.42 1015.06 1014.70 1014.34 1014.02 1013.70 1013.34 1013.02 1012.74 1012.46 1012.22 1011.94 1011.58 1011.26 1010.90 1010.54 1010.26
1019.42 1019.58 1019.78 1019.94 1020.18 1020.42 1020.50 1020.70 1020.62 1020.58 1020.46 1020.54 1020.58 1020.62 1020.66 1020.74 1020.66 1020.70 1020.82 1020.78 1020.74 1020.70 1020.62 1020.54 1020.50 1020.46 1020.42 1020.42 1020.70 1020.18 1020.06 1019.90 1019.86 1019.86 1019.82 1019.82 1020.06 1020.02 1020.18 1019.98 1019.78 1019.58 1019.30 1019.14 1019.14 1019.14 1018.86 1018.38 1018.30 1018.06 1017.70 1017.34 1017.02 1016.66 1016.38 1016.10 1015.74 1015.38 1015.02 1014.66 1014.26 1013.94 1013.58 1013.22 1012.90 1012.66 1012.46 1012.22 1011.90 1011.58 1011.26 1010.90 1010.54 1010.18
1019.30 1019.38 1019.58 1019.90 1020.18 1020.30 1020.50 1020.66 1020.54 1020.54 1020.42 1020.46 1020.62 1020.58 1020.46 1020.50 1020.54 1020.74 1021.02 1020.82 1020.58 1020.46 1020.46 1020.46 1020.42 1020.42 1020.46 1020.34 1020.58 1020.30 1020.06 1019.94 1019.86 1019.90 1020.06 1020.02 1020.10 1020.06 1020.06 1020.06 1019.86 1019.62 1019.26 1019.02 1019.10 1019.06 1018.78 1018.50 1018.26 1018.06 1017.58 1017.18 1016.82 1016.58 1016.30 1015.98 1015.62 1015.26 1014.94 1014.54 1014.18 1013.82 1013.46 1013.10 1012.82 1012.66 1012.46 1012.22 1011.94 1011.62 1011.26 1010.90 1010.54 1010.14
1019.26 1019.34 1019.54 1019.78 1020.06 1020.30 1020.54 1020.62 1020.46 1020.46 1020.42 1020.50 1020.58 1020.62 1020.54 1020.50 1020.66 1020.98 1021.30 1021.02 1020.78 1020.86 1020.90 1020.74 1020.62 1020.42 1020.46 1020.34 1020.38 1020.30 1020.18 1020.02 1019.94 1019.94 1020.02 1019.98 1019.98 1020.10 1020.06 1019.98 1019.82 1019.66 1019.38 1019.02 1018.98 1019.06 1018.74 1018.58 1018.26 1018.14 1017.58 1017.26 1016.74 1016.38 1016.22 1015.94 1015.62 1015.22 1014.86 1014.54 1014.14 1013.74 1013.38 1013.06 1012.82 1012.70 1012.50 1012.22 1011.94 1011.62 1011.30 1010.94 1010.62 1010.30
1019.42 1019.50 1019.70 1019.86 1020.06 1020.26 1020.50 1020.50 1020.42 1020.42 1020.50 1020.50 1020.70 1020.66 1020.50 1020.62 1020.62 1021.06 1021.02 1020.86 1020.90 1021.26 1021.18 1021.02 1020.94 1020.86 1020.90 1020.74 1020.62 1020.50 1020.38 1020.22 1020.06 1020.06 1020.06 1019.98 1019.98 1019.98 1019.98 1019.90 1019.90 1019.90 1019.58 1018.98 1018.98 1019.14 1018.78 1018.58 1018.42 1018.18 1018.10 1017.90 1017.14 1016.42 1016.22 1015.86 1015.54 1015.18 1014.78 1014.42 1014.14 1013.62 1013.30 1013.02 1012.86 1012.74 1012.46 1012.22 1011.94 1011.62 1011.34 1011.02 1010.74 1010.54
1019.38 1019.62 1019.74 1019.90 1020.10 1020.22 1020.38 1020.46 1020.42 1020.42 1020.50 1020.50 1020.50 1020.54 1020.46 1020.58 1020.86 1021.10 1020.78 1020.82 1021.10 1021.14 1020.94 1020.98 1020.90 1020.82 1020.86 1020.82 1020.78 1020.66 1020.54 1020.46 1020.34 1020.26 1020.18 1020.18 1020.14 1019.98 1019.94 1019.90 1019.82 1019.82 1019.50 1019.06 1018.98 1019.02 1018.78 1018.54 1018.38 1018.18 1017.94 1017.86 1017.46 1017.02 1016.38 1016.14 1015.54 1015.22 1014.74 1014.46 1014.18 1013.62 1013.38 1013.14 1013.02 1012.70 1012.42 1012.18 1011.86 1011.54 1011.22 1011.02 1010.74 1010.58
1019.30 1019.46 1019.66 1019.78 1019.94 1020.14 1020.26 1020.38 1020.42 1020.38 1020.38 1020.38 1020.30 1020.38 1020.50 1020.78 1020.94 1020.82 1021.10 1021.22 1021.10 1020.98 1020.94 1020.82 1020.78 1020.90 1021.02 1021.06 1021.10 1021.06 1021.02 1020.94 1020.74 1020.54 1020.38 1020.30 1020.18 1020.10 1020.06 1020.02 1019.98 1019.86 1019.58 1019.14 1019.02 1018.90 1018.78 1018.46 1018.26 1018.26 1018.06 1017.90 1017.42 1017.18 1016.66 1016.10 1015.62 1015.14 1014.82 1014.42 1014.14 1013.70 1013.42 1013.26 1012.94 1012.66 1012.46 1012.22 1011.94 1011.58 1011.26 1010.90 1010.66 1010.34
1019.10 1019.42 1019.50 1019.54 1019.70 1019.94 1020.10 1020.26 1020.34 1020.26 1020.18 1020.18 1020.14 1020.34 1020.54 1020.74 1020.86 1021.06 1021.18 1020.98 1020.82 1020.82 1020.82 1020.86 1021.02 1021.18 1021.34 1021.42 1021.50 1021.50 1021.46 1021.26 1021.06 1020.82 1020.66 1020.54 1020.46 1020.34 1020.22 1020.06 1019.98 1019.90 1019.66 1019.34 1019.02 1018.86 1018.78 1018.62 1018.38 1018.46 1018.30 1018.10 1017.82 1017.18 1016.86 1016.42 1015.58 1015.06 1014.86 1014.46 1014.06 1013.62 1013.34 1013.14 1012.86 1012.66 1012.46 1012.22 1011.90 1011.50 1011.14 1010.78 1010.46 1010.18
1018.90 1019.22 1019.30 1019.34 1019.38 1019.66 1019.90 1020.10 1020.26 1020.18 1020.02 1019.94 1020.06 1020.26 1020.46 1020.62 1020.90 1021.02 1020.82 1020.74 1020.78 1020.86 1020.94 1021.14 1021.34 1021.46 1021.58 1021.66 1021.66 1021.66 1021.62 1021.42 1021.26 1021.02 1020.78 1020.66 1020.50 1020.38 1020.22 1020.06 1019.90 1019.74 1019.54 1019.30 1019.10 1018.98 1018.90 1018.86 1018.62 1018.42 1018.38 1018.18 1017.98 1017.62 1017.06 1016.30 1015.86 1015.38 1014.94 1014.34 1014.14 1013.66 1013.30 1013.10 1012.94 1012.70 1012.38 1012.10 1011.82 1011.54 1011.22 1010.82 1010.46 1010.14
1018.62 1018.78 1018.86 1018.98 1019.30 1019.46 1019.74 1020.02 1020.14 1020.10 1019.94 1019.94 1019.98 1020.14 1020.34 1020.54 1020.78 1020.66 1020.62 1020.70 1020.82 1020.94 1021.26 1021.42 1021.58 1021.62 1021.66 1021.70 1021.78 1021.70 1021.54 1021.38 1021.14 1020.98 1020.82 1020.66 1020.46 1020.34 1020.22 1020.10 1019.94 1019.74 1019.58 1019.34 1019.18 1019.06 1018.98 1018.86 1018.66 1018.38 1018.18 1017.98 1017.82 1017.38 1017.06 1016.54 1016.02 1015.38 1014.86 1014.46 1014.10 1013.74 1013.38 1013.18 1012.98 1012.78 1012.42 1012.14 1011.86 1011.58 1011.34 1011.10 1010.66 1010.34
1018.34 1018.54 1018.74 1018.98 1019.18 1019.46 1019.66 1019.94 1019.98 1019.70 1019.70 1019.82 1019.94 1019.98 1020.10 1020.30 1020.42 1020.50 1020.58 1020.78 1020.78 1021.06 1021.30 1021.42 1021.54 1021.58 1021.66 1021.62 1021.62 1021.58 1021.38 1021.26 1021.26 1021.22 1020.98 1020.82 1020.58 1020.50 1020.34 1020.18 1019.94 1019.78 1019.62 1019.42 1019.22 1019.06 1018.86 1018.70 1018.50 1018.30 1018.14 1017.78 1017.54 1017.26 1016.82 1016.46 1015.94 1015.38 1014.86 1014.58 1014.14 1013.66 1013.34 1013.26 1012.98 1012.70 1012.38 1012.06 1011.78 1011.50 1011.18 1010.98 1010.66 1010.38
1018.38 1018.62 1018.78 1018.94 1019.10 1019.34 1019.58 1019.38 1019.22 1019.34 1019.50 1019.54 1019.66 1019.82 1019.98 1020.18 1020.34 1020.46 1020.50 1020.66 1020.86 1021.14 1021.30 1021.46 1021.54 1021.54 1021.58 1021.62 1021.54 1021.30 1021.34 1021.42 1021.30 1021.26 1021.14 1020.98 1020.82 1020.66 1020.50 1020.34 1020.14 1019.86 1019.54 1019.34 1019.18 1018.98 1018.82 1018.58 1018.34 1018.18 1018.10 1017.74 1017.38 1017.02 1016.54 1016.30 1015.94 1015.38 1014.90 1014.58 1014.30 1014.18 1013.42 1013.22 1012.98 1012.62 1012.30 1012.02 1011.66 1011.34 1011.02 1010.70 1010.42 1010.18
1018.34 1018.46 1018.74 1019.06 1019.26 1019.18 1018.98 1019.02 1019.14 1019.18 1019.42 1019.62 1019.86 1020.10 1020.26 1020.34 1020.46 1020.54 1020.74 1021.02 1021.18 1021.26 1021.38 1021.46 1021.58 1021.70 1021.66 1021.46 1021.38 1021.38 1021.34 1021.38 1021.34 1021.38 1021.30 1021.14 1020.98 1020.74 1020.58 1020.42 1020.18 1019.94 1019.62 1019.26 1019.06 1018.90 1018.70 1018.46 1018.26 1018.02 1017.86 1017.66 1017.46 1016.82 1016.42 1016.10 1015.82 1015.42 1015.10 1014.66 1014.34 1013.94 1013.50 1013.06 1012.70 1012.42 1012.14 1011.90 1011.54 1011.18 1010.90 1010.66 1010.38 1010.06
1018.42 1018.54 1018.66 1018.54 1018.38 1018.42 1018.70 1018.90 1019.14 1019.42 1019.58 1019.90 1020.18 1020.34 1020.46 1020.50 1020.54 1020.66 1020.74 1020.74 1020.94 1021.18 1021.22 1021.18 1021.26 1021.30 1021.38 1021.30 1021.30 1021.34 1021.46 1021.50 1021.58 1021.54 1021.38 1021.10 1020.98 1020.78 1020.62 1020.50 1020.26 1020.02 1019.82 1019.46 1019.14 1018.86 1018.66 1018.38 1018.10 1017.86 1017.62 1017.34 1017.10 1016.78 1016.54 1016.18 1015.66 1015.42 1015.26 1014.78 1014.42 1013.94 1013.46 1013.10 1012.86 1012.46 1012.06 1011.82 1011.58 1011.22 1010.82 1010.58 1010.38 1010.10
1018.06 1018.26 1018.18 1018.26 1018.22 1018.50 1018.78 1019.06 1019.30 1019.46 1019.58 1019.70 1019.90 1020.14 1020.26 1020.26 1020.26 1020.46 1020.62 1020.78 1020.98 1021.14 1021.10 1021.22 1021.30 1021.34 1021.26 1021.26 1021.46 1021.74 1021.86 1021.78 1021.66 1021.54 1021.42 1021.22 1021.06 1020.90 1020.74 1020.62 1020.42 1020.18 1019.98 1019.66 1019.38 1019.06 1018.70 1018.34 1018.02 1017.66 1017.38 1017.10 1016.86 1016.58 1016.38 1016.26 1015.90 1015.50 1015.18 1014.90 1014.58 1014.14 1013.58 1013.22 1012.90 1012.66 1012.46 1012.18 1011.82 1011.34 1010.86 1010.46 1010.26 1010.10
1017.74 1017.98 1017.98 1018.22 1018.38 1018.58 1018.86 1019.06 1019.26 1019.38 1019.38 1019.46 1019.62 1019.94 1020.10 1020.22 1020.38 1020.58 1020.66 1020.86 1020.98 1021.02 1021.10 1021.26 1021.30 1021.34 1021.50 1021.74 1021.98 1022.02 1021.90 1021.82 1021.74 1021.58 1021.46 1021.38 1021.18 1021.06 1020.90 1020.78 1020.54 1020.26 1020.02 1019.78 1019.46 1019.14 1018.86 1018.46 1018.06 1017.62 1017.26 1017.02 1016.78 1016.38 1016.26 1016.06 1016.02 1015.58 1015.22 1014.86 1014.62 1014.22 1013.66 1013.34 1013.10 1012.78 1012.58 1012.22 1011.90 1011.58 1010.98 1010.46 1010.10 1009.86
1017.78 1017.86 1017.94 1018.26 1018.50 1018.78 1018.86 1019.02 1019.22 1019.26 1019.30 1019.46 1019.54 1019.86 1020.10 1020.30 1020.54 1020.54 1020.62 1020.82 1021.02 1021.14 1021.26 1021.42 1021.66 1021.82 1021.94 1022.02 1022.06 1022.02 1021.90 1021.86 1021.78 1021.74 1021.62 1021.46 1021.34 1021.14 1020.98 1020.82 1020.62 1020.38 1020.18 1019.98 1019.66 1019.26 1019.02 1018.70 1018.34 1018.18 1017.82 1017.18 1016.94 1016.50 1016.14 1015.86 1015.82 1015.70 1015.46 1014.94 1014.62 1014.30 1013.90 1013.58 1013.22 1012.94 1012.58 1012.26 1011.94 1011.78 1011.38 1010.70 1010.10 1009.78
1017.78 1017.90 1017.94 1018.22 1018.62 1018.78 1018.74 1019.06 1019.10 1019.22 1019.34 1019.54 1019.74 1019.78 1019.98 1020.22 1020.50 1020.70 1021.02 1021.26 1021.34 1021.58 1021.66 1021.70 1021.90 1022.02 1022.06 1022.06 1022.02 1021.98 1021.94 1021.94 1021.90 1021.86 1021.70 1021.54 1021.42 1021.22 1021.06 1020.86 1020.70 1020.50 1020.26 1019.94 1019.70 1019.38 1019.10 1018.86 1018.54 1018.46 1018.14 1017.70 1017.46 1017.06 1016.10 1015.58 1015.42 1015.42 1015.34 1015.14 1014.70 1014.50 1014.18 1013.74 1013.34 1012.94 1012.66 1012.42 1011.98 1011.78 1011.46 1010.98 1010.30 1009.78
1017.54 1017.82 1017.98 1018.26 1018.54 1018.70 1018.82 1019.06 1019.14 1019.26 1019.54 1019.74 1019.90 1020.14 1020.26 1020.54 1020.90 1021.18 1021.38 1021.38 1021.62 1021.70 1021.74 1021.82 1021.94 1021.98 1022.02 1022.02 1021.94 1021.86 1021.94 1022.02 1022.02 1021.94 1021.78 1021.58 1021.38 1021.22 1021.14 1020.98 1020.74 1020.50 1020.22 1019.90 1019.66 1019.42 1019.18 1018.98 1018.70 1018.42 1018.34 1018.22 1017.82 1017.02 1016.06 1014.90 1015.06 1014.98 1015.10 1015.06 1014.82 1014.34 1014.10 1013.78 1013.42 1013.02 1012.50 1012.22 1012.06 1011.50 1011.22 1010.90 1010.26 1009.70
1017.38 1017.62 1017.82 1018.14 1018.54 1018.62 1018.78 1018.94 1018.98 1019.26 1019.58 1019.70 1019.74 1019.94 1020.38 1020.82 1021.02 1021.22 1021.26 1021.50 1021.70 1021.70 1021.74 1021.74 1021.78 1021.82 1021.82 1021.82 1021.94 1022.10 1022.10 1022.14 1022.06 1021.94 1021.78 1021.54 1021.38 1021.22 1021.06 1020.86 1020.62 1020.34 1020.14 1019.82 1019.58 1019.38 1019.18 1018.98 1018.74 1018.50 1018.34 1018.18 1017.86 1017.22 1016.70 1016.06 1015.18 1014.66 1014.66 1014.82 1014.66 1014.34 1013.98 1013.78 1013.30 1012.82 1012.50 1012.02 1011.54 1011.22 1010.86 1010.50 1009.94 1009.38
1017.38 1017.50 1017.74 1018.10 1018.42 1018.62 1018.70 1019.06 1019.18 1019.30 1019.38 1019.54 1019.74 1019.98 1020.18 1020.38 1020.70 1021.06 1021.34 1021.46 1021.54 1021.58 1021.50 1021.54 1021.66 1021.66 1021.74 1021.98 1022.10 1022.10 1022.06 1022.06 1022.02 1021.90 1021.70 1021.50 1021.34 1021.14 1020.94 1020.74 1020.58 1020.38 1020.18 1019.94 1019.66 1019.38 1019.18 1018.90 1018.66 1018.34 1017.98 1017.70 1017.30 1016.86 1016.42 1016.02 1015.42 1014.90 1014.70 1014.54 1014.54 1014.38 1013.94 1013.58 1013.18 1012.74 1012.22 1011.90 1011.54 1011.14 1010.54 1009.98 1009.66 1009.02
1017.46 1017.62 1017.86 1018.06 1018.30 1018.58 1018.74 1019.02 1019.18 1019.38 1019.50 1019.66 1019.90 1020.14 1020.22 1020.58 1020.82 1021.10 1021.26 1021.34 1021.34 1021.30 1021.38 1021.50 1021.62 1021.82 1021.98 1022.02 1022.06 1022.10 1022.06 1022.02 1021.94 1021.78 1021.62 1021.46 1021.22 1020.98 1020.74 1020.58 1020.46 1020.30 1020.26 1019.98 1019.74 1019.46 1019.14 1018.78 1018.34 1017.98 1017.70 1017.34 1016.90 1016.58 1016.22 1015.90 1015.46 1014.70 1014.34 1014.06 1014.14 1014.02 1013.74 1013.50 1013.18 1012.82 1012.34 1011.82 1011.54 1011.18 1010.70 1010.30 1009.78 1009.18
1017.38 1017.50 1017.86 1018.18 1018.22 1018.62 1018.82 1019.02 1019.26 1019.34 1019.50 1019.70 1019.86 1020.06 1020.58 1020.78 1020.90 1021.06 1021.18 1021.22 1021.22 1021.34 1021.54 1021.62 1021.70 1021.82 1021.90 1021.98 1021.94 1021.98 1021.94 1021.90 1021.86 1021.70 1021.54 1021.38 1021.18 1020.94 1020.70 1020.58 1020.46 1020.26 1020.26 1020.06 1019.70 1019.34 1018.86 1018.46 1018.02 1017.66 1017.30 1017.10 1016.94 1016.94 1016.66 1016.26 1015.74 1014.94 1014.26 1013.70 1013.38 1013.42 1013.30 1013.02 1012.74 1012.50 1012.18 1011.82 1011.54 1011.18 1010.66 1010.02 1009.66 1009.38
1017.42 1017.50 1017.82 1018.18 1018.38 1018.66 1018.82 1019.02 1019.18 1019.22 1019.42 1019.66 1019.86 1020.30 1020.62 1020.90 1021.02 1021.06 1021.14 1021.14 1021.26 1021.38 1021.38 1021.50 1021.70 1021.78 1021.86 1021.90 1021.90 1021.94 1021.94 1021.90 1021.82 1021.70 1021.50 1021.34 1021.18 1020.98 1020.78 1020.58 1020.46 1020.30 1020.18 1019.86 1019.46 1019.10 1018.70 1018.26 1017.82 1017.50 1017.26 1017.18 1017.02 1016.98 1016.70 1016.10 1015.66 1015.22 1014.54 1013.90 1013.26 1012.82 1012.62 1012.54 1012.34 1011.98 1011.66 1011.34 1011.18 1010.98 1010.78 1010.50 1010.34 1009.78
1017.30 1017.54 1017.90 1018.22 1018.42 1018.66 1018.90 1018.98 1019.10 1019.22 1019.34 1019.54 1019.98 1020.30 1020.42 1020.66 1020.82 1020.90 1020.90 1020.98 1021.10 1021.22 1021.42 1021.50 1021.66 1021.78 1021.82 1021.90 1021.90 1021.86 1021.86 1021.86 1021.78 1021.66 1021.50 1021.30 1021.14 1020.98 1020.78 1020.58 1020.38 1020.18 1019.94 1019.70 1019.30 1018.90 1018.54 1018.14 1017.70 1017.46 1017.30 1017.14 1016.94 1016.78 1016.42 1015.94 1015.54 1015.06 1014.66 1014.14 1013.50 1013.02 1012.42 1011.90 1011.66 1011.46 1011.18 1010.98 1010.66 1010.38 1010.14 1009.98 1009.78 1009.42
1017.26 1017.46 1017.90 1018.26 1018.46 1018.70 1018.82 1018.98 1019.02 1019.18 1019.38 1019.66 1019.94 1020.10 1020.34 1020.54 1020.62 1020.70 1020.86 1020.98 1021.10 1021.26 1021.42 1021.54 1021.66 1021.78 1021.90 1021.90 1021.90 1021.78 1021.74 1021.74 1021.74 1021.66 1021.54 1021.34 1021.10 1020.90 1020.70 1020.50 1020.30 1020.06 1019.82 1019.54 1019.30 1018.82 1018.46 1018.02 1017.58 1017.34 1017.22 1017.02 1016.82 1016.62 1016.18 1015.94 1015.58 1015.06 1014.50 1014.06 1013.58 1013.06 1012.62 1012.14 1011.58 1011.02 1010.74 1010.38 1010.22 1010.02 1009.66 1009.42 1009.10 1008.78
Wind_Speed
7 7 7 6 6 6 6 7 7 6 6 6 5 4 4 4 6 2 4 3 3 4 3 3 5 9 9 7 7 9 10 12 11 7 7 8 7 11 14 14 13 13 12 11 11 10 9 9 9 9 9 10 12 14 14 14 16 16 15 13 11 10 10 10 12 12 12 11 14 15 16 16 17 18
7 7 8 6 7 5 7 7 6 7 7 7 7 7 6 4 5 2 4 3 1 3 4 4 6 9 10 9 9 8 9 14 12 10 9 8 9 13 16 16 16 17 17 15 13 12 12 12 12 12 13 13 14 14 14 14 14 13 13 12 11 10 9 9 12 11 11 11 13 15 15 15 16 17
7 8 8 6 6 5 6 7 7 7 7 6 6 6 6 7 4 3 2 3 3 2 6 6 6 5 8 8 8 8 8 11 11 9 8 8 13 14 12 15 15 17 16 16 15 14 14 15 14 14 13 13 13 13 14 14 13 12 12 11 10 10 8 9 11 11 12 13 14 15 15 15 16 16
6 7 8 6 6 4 6 7 6 6 6 6 7 6 6 6 5 3 4 5 5 5 4 4 7 8 7 9 9 8 7 9 13 8 8 10 12 10 8 12 16 19 16 16 16 15 13 12 13 15 15 15 13 10 10 11 11 12 12 12 11 9 9 11 11 12 12 14 16 16 16 16 17 17
6 7 7 6 5 4 8 6 6 7 6 7 7 6 7 7 6 5 5 5 5 5 5 5 6 7 7 10 8 9 8 9 9 9 8 9 9 8 8 8 13 18 16 15 17 17 17 16 14 13 12 12 13 13 11 10 9 9 8 11 11 11 10 9 10 12 13 14 15 16 17 17 16 16
5 5 7 6 5 5 7 6 7 5 7 6 8 7 6 7 7 4 4 4 4 4 6 7 5 6 8 8 8 7 8 8 8 10 8 7 7 8 8 8 8 16 16 15 15 16 17 17 17 16 14 14 15 14 12 12 11 10 9 10 10 10 11 11 11 11 12 14 15 17 18 18 17 14
4 6 6 5 4 4 8 6 5 5 6 6 7 6 5 6 6 6 4 3 5 6 5 4 6 6 6 8 8 7 5 5 6 8 9 8 8 8 10 9 8 14 16 16 15 16 16 16 16 16 16 15 16 16 16 14 12 11 11 12 11 11 11 11 11 12 13 13 14 15 17 16 14 14
5 5 6 4 4 4 7 5 5 4 4 6 6 6 5 6 6 5 5 5 3 3 6 6 6 6 5 5 7 6 5 7 7 6 4 5 8 8 8 8 8 12 18 19 18 18 17 17 17 17 16 16 17 18 17 15 15 14 13 12 12 12 12 12 12 12 13 13 13 14 15 14 17 17
5 5 5 4 4 4 6 4 4 3 5 4 6 6 5 5 4 5 5 5 4 6 7 4 4 4 4 3 4 7 7 6 6 6 7 6 7 8 7 6 8 12 16 16 17 16 17 18 18 18 18 17 17 18 19 18 15 15 16 15 14 13 13 13 12 12 11 11 11 12 12 14 16 17
5 5 5 4 4 5 5 4 3 3 4 4 5 5 5 5 5 6 5 5 6 6 5 4 5 5 5 4 3 4 4 5 6 6 4 4 5 6 8 7 6 6 7 8 9 11 12 16 17 19 17 18 18 18 18 18 18 18 18 17 16 16 15 14 13 12 11 11 11 11 12 12 13 15
4 4 4 5 5 5 4 4 3 3 4 4 4 4 4 4 5 6 5 5 6 5 5 4 3 3 3 2 4 3 2 1 4 6 7 7 4 5 6 8 6 5 7 9 14 13 13 15 13 16 16 18 19 19 18 18 18 18 19 20 20 19 18 16 14 12 12 12 11 12 12 13 13 13
4 4 4 4 4 5 3 3 3 3 3 3 4 2 4 4 5 5 4 5 5 5 4 5 4 3 2 3 2 2 2 2 4 6 6 9 10 9 6 3 6 7 7 8 8 9 11 12 15 17 16 18 20 18 16 17 18 20 20 20 20 20 19 18 16 14 13 13 13 12 12 13 13 14
5 4 4 3 4 5 8 9 7 6 4 3 4 2 3 4 5 5 5 5 5 5 5 5 4 5 6 5 6 7 5 5 3 3 4 5 6 7 8 8 3 3 6 6 6 7 6 8 9 8 10 13 18 15 17 14 18 20 19 18 18 19 20 20 18 16 16 16 15 14 13 13 13 14
4 4 4 4 10 10 11 10 11 10 8 6 4 3 4 5 6 6 6 6 5 5 5 5 4 6 6 5 4 3 3 2 2 4 5 6 6 6 7 6 3 4 7 7 8 6 5 6 7 7 8 9 12 10 10 11 15 17 18 17 17 18 19 19 19 18 17 16 16 16 16 14 13 13
5 4 4 4 6 7 8 7 11 12 11 9 7 8 9 8 6 6 6 4 3 3 3 2 3 3 4 6 4 3 4 3 1 1 2 4 5 5 6 8 9 4 7 6 6 8 6 6 8 7 7 8 8 10 10 17 18 17 16 16 16 17 17 18 18 18 18 17 16 16 16 16 14 13
5 5 5 4 4 4 4 4 6 8 11 11 11 11 10 12 11 8 6 4 4 3 3 4 3 3 4 5 5 4 3 4 3 3 3 3 2 4 4 4 5 7 5 5 4 7 5 4 6 7 8 9 8 10 14 18 18 17 15 15 16 16 16 16 17 17 18 18 18 16 16 15 15 15
6 5 6 5 4 4 7 6 4 5 5 8 11 12 12 10 9 8 7 4 3 2 3 3 5 3 2 4 5 4 4 1 2 2 4 3 3 1 3 4 3 7 3 3 3 5 7 5 6 7 7 7 8 10 13 18 19 17 15 16 15 15 16 16 16 17 18 19 18 18 16 16 15 15
6 6 7 6 5 3 4 3 4 4 5 5 5 5 5 4 4 6 10 9 7 4 3 2 3 3 1 3 3 5 1 2 2 2 1 1 2 3 3 4 4 5 4 3 2 3 6 5 5 7 8 7 7 8 13 18 18 17 16 17 16 15 16 16 16 16 17 17 17 18 17 16 16 15
6 6 6 7 6 4 4 2 3 5 4 4 5 5 5 4 4 4 5 4 4 3 2 1 1 4 3 3 3 1 1 4 3 2 1 0 1 2 3 3 3 5 5 1 2 5 7 3 3 6 7 7 8 7 9 14 17 18 19 19 17 15 15 16 16 17 17 17 17 18 18 18 17 15
5 5 7 7 6 4 4 4 5 5 4 5 5 4 4 4 3 3 1 1 1 1 1 1 3 2 2 4 3 3 5 3 1 0 1 1 2 3 4 4 4 2 6 1 2 3 6 4 3 6 6 6 7 7 6 9 15 17 18 19 19 16 15 15 16 17 17 17 17 17 17 18 18 16
5 6 5 5 5 4 4 4 6 6 7 5 4 4 3 2 3 5 5 6 5 7 8 9 10 11 9 7 3 7 5 4 2 3 5 5 2 5 4 3 2 5 3 1 2 3 5 5 3 6 6 5 6 6 6 6 11 16 16 17 18 17 16 16 16 16 16 16 16 16 17 17 17 15
6 7 12 8 5 5 4 5 7 7 6 5 3 3 4 4 4 4 5 5 6 9 10 12 13 10 8 8 2 3 4 1 2 3 5 3 1 4 3 4 3 5 3 2 1 4 5 6 4 5 5 4 3 5 5 8 9 12 12 15 17 16 16 16 16 15 15 15 15 15 16 17 17 10
6 6 8 10 7 5 5 6 7 7 6 4 4 3 4 3 2 1 1 3 5 6 8 8 8 9 8 4 2 1 1 3 3 0 2 1 2 2 3 3 3 3 2 4 4 6 6 7 6 5 7 7 4 3 5 8 8 8 8 8 10 14 16 16 15 13 13 14 14 14 16 17 15 9
4 5 5 5 8 8 6 6 7 6 6 5 4 3 3 1 1 1 1 1 2 4 3 4 4 4 4 5 3 3 4 4 4 4 3 1 0 1 2 3 2 2 3 3 3 2 3 2 7 4 4 8 8 7 8 8 8 8 8 8 8 12 14 13 11 11 12 13 14 14 15 16 15 9
7 6 5 4 6 8 8 7 7 7 7 6 4 3 2 2 1 1 3 4 8 3 3 3 3 5 5 4 5 6 7 8 7 6 4 3 1 3 5 5 5 3 4 5 6 2 3 3 5 3 5 3 6 8 7 7 8 7 8 9 9 10 8 8 5 6 7 11 13 15 15 15 16 12
6 6 6 5 7 9 8 8 8 8 7 5 2 3 5 2 3 1 1 1 1 2 4 4 5 6 6 6 7 7 7 7 7 6 4 4 4 5 4 4 5 5 6 7 8 3 4 4 4 6 6 6 8 7 9 7 7 7 7 8 8 9 7 6 5 5 6 6 7 10 13 15 14 16
8 6 6 6 9 10 10 9 8 7 6 4 2 4 2 0 1 1 1 1 3 4 3 4 6 5 6 6 6 6 6 6 6 6 5 5 5 5 5 5 4 4 6 7 5 5 4 4 5 7 8 7 8 8 7 8 8 7 7 8 8 9 6 5 5 6 6 6 7 12 13 14 15 15
8 7 6 6 10 11 10 8 7 6 4 2 4 2 1 2 1 1 2 3 3 3 4 6 6 5 4 3 5 4 4 5 4 5 4 4 4 4 5 5 4 4 6 6 7 7 6 6 7 6 6 7 8 8 10 8 8 8 9 8 7 8 6 4 6 6 7 7 7 8 8 9 9 10
8 9 11 9 10 10 9 7 6 5 5 5 4 3 2 1 3 3 4 4 4 6 5 3 3 3 2 1 0 1 3 3 4 4 5 5 4 4 4 4 4 4 4 5 6 5 5 6 7 6 6 6 7 8 8 9 9 9 9 9 6 6 7 6 7 7 7 6 7 8 7 7 8 7
12 12 11 11 8 5 4 4 5 3 2 3 3 2 3 4 5 5 6 4 6 5 3 3 2 1 0 1 2 1 3 6 6 4 5 5 6 6 6 6 6 5 5 5 5 4 5 5 6 6 7 7 7 8 8 9 9 9 9 8 8 6 2 6 7 7 8 8 7 8 7 6 7 6
8 9 8 6 6 6 10 6 4 4 3 4 5 5 6 6 6 6 6 6 6 3 3 2 1 0 1 0 1 6 6 5 6 4 4 5 6 6 5 5 6 6 6 4 4 4 5 6 6 6 7 8 8 8 9 8 8 9 8 7 7 9 9 6 6 7 7 8 8 7 7 7 7 6
6 5 4 4 3 3 5 6 6 7 6 5 4 5 5 5 4 6 8 6 4 3 2 2 1 0 1 3 4 4 5 5 6 5 6 5 6 6 5 5 6 6 7 6 5 4 6 6 7 7 6 7 8 9 8 7 7 7 7 8 8 8 8 10 9 8 8 7 8 7 7 7 7 7
3 4 4 3 4 6 7 7 7 5 5 4 3 4 4 5 5 5 4 6 4 4 3 3 3 2 2 3 3 3 5 5 5 4 5 4 5 5 4 6 7 7 8 8 8 8 7 7 7 7 7 7 7 8 7 8 7 7 8 9 9 10 10 9 9 10 9 8 7 8 8 6 6 7
5 3 5 3 6 7 7 7 6 5 5 5 4 4 4 4 5 4 4 4 3 2 2 3 3 2 2 5 5 5 4 5 5 5 4 5 4 5 6 7 7 6 6 8 8 8 8 8 8 7 6 5 5 5 5 6 8 8 9 9 9 10 10 9 8 8 9 8 8 8 9 8 7 6
5 4 5 5 6 6 7 7 7 5 5 5 6 4 4 3 3 4 5 5 3 2 3 3 3 3 6 5 4 3 3 3 5 5 5 5 6 6 6 6 7 7 8 8 8 8 8 9 9 9 7 5 5 3 4 2 7 9 9 9 8 9 9 7 9 9 9 8 7 9 10 10 9 7
5 5 6 6 6 6 6 5 4 5 6 5 6 6 5 3 1 6 5 3 2 3 4 5 6 6 4 3 1 2 3 3 5 5 6 6 6 6 5 6 6 7 7 7 8 8 8 8 8 9 10 10 10 11 5 2 4 6 8 9 9 9 9 10 9 8 8 8 7 8 10 12 11 9
6 4 6 7 5 6 7 6 6 6 6 6 5 5 6 4 3 3 3 4 6 5 6 6 5 3 1 1 1 2 3 4 5 6 6 6 5 5 6 6 6 6 7 7 7 8 7 8 7 6 8 10 10 11 11 5 5 4 4 8 9 7 9 9 10 9 7 8 9 7 9 10 11 10
7 5 6 6 5 6 6 6 6 6 6 6 6 6 5 5 5 4 4 6 5 4 5 5 3 1 0 0 2 4 4 5 5 6 6 6 6 6 6 6 7 7 7 7 6 7 6 7 7 7 7 8 10 11 14 11 8 4 4 7 8 8 8 9 9 10 10 7 8 9 8 9 11 10
7 7 7 7 6 6 6 6 6 6 6 6 6 6 6 6 6 5 6 5 4 4 4 3 2 1 1 2 2 3 4 5 6 6 6 6 6 6 6 6 7 7 7 8 7 6 6 6 7 7 7 7 8 10 10 12 13 11 11 12 8 8 8 8 10 9 9 10 9 9 8 8 11 15
6 7 7 7 7 7 6 6 6 6 6 6 6 6 7 6 6 6 5 5 4 4 4 3 1 0 2 3 3 3 3 4 5 6 6 6 6 5 5 5 6 7 7 8 8 8 7 7 7 8 8 8 8 8 9 10 10 9 8 9 11 11 10 9 10 11 10 9 9 10 11 10 10 8
6 5 6 7 7 7 7 6 6 6 6 6 5 5 6 6 6 6 6 5 4 3 2 0 0 1 3 2 1 1 3 5 5 6 6 6 6 7 7 7 6 6 7 8 8 8 8 8 11 15 12 7 7 8 8 9 11 12 11 9 6 12 16 14 10 10 11 11 10 10 10 10 10 10
6 7 7 7 7 6 7 6 6 6 6 6 6 6 6 6 6 6 5 4 3 3 2 2 2 3 1 1 2 2 3 5 6 6 6 6 6 6 6 6 6 6 7 8 9 9 9 9 10 8 6 7 8 8 10 10 11 11 12 11 9 10 12 14 17 16 12 10 9 9 9 9 6 7
6 7 7 6 6 6 6 7 6 6 6 6 6 6 6 6 5 5 4 4 3 3 4 4 3 2 0 2 3 3 4 5 5 6 6 6 6 6 6 6 6 6 6 8 8 8 8 9 8 7 6 7 7 6 9 10 10 10 11 12 12 11 9 11 14 16 16 17 15 11 9 8 8 9
7 7 7 6 7 6 6 6 6 5 6 6 6 6 6 6 6 5 4 5 5 4 4 4 2 1 2 3 3 3 4 5 6 6 6 6 6 5 6 6 6 6 7 7 8 8 8 8 7 7 7 7 7 8 10 10 10 10 10 10 10 11 13 10 9 9 11 11 12 14 15 15 14 16
7 7 7 6 7 6 6 6 6 6 6 6 6 6 6 5 6 5 4 5 5 4 4 3 1 1 2 3 3 4 5 5 6 5 6 6 6 6 5 6 6 6 6 7 7 8 8 8 8 6 6 7 7 8 9 9 10 10 11 11 12 11 10 10 11 12 10 8 5 10 13 14 15 16
Wind_Direction
67 58 51 57 47 33 38 40 35 32 35 35 40 43 82 130 119 107 64 19 9 344 3 23 344 13 10 5 18 37 34 25 29 24 26 20 17 13 17 13 13 12 10 12 16 19 20 12 3 341 321 316 308 299 290 283 283 283 278 270 265 261 260 258 263 267 268 262 263 264 260 259 259 255
69 64 56 46 49 28 48 48 43 46 45 45 39 44 36 45 93 139 116 91 353 341 337 36 9 6 20 28 37 44 36 29 35 34 34 31 22 22 24 21 16 10 3 358 357 358 0 7 6 0 356 351 345 340 339 334 323 307 289 276 270 268 264 263 270 272 270 267 268 270 268 263 263 263
63 63 59 47 50 34 50 47 47 47 49 48 48 41 46 39 53 99 109 91 353 19 14 359 20 30 35 40 43 35 32 25 30 30 27 22 21 23 17 22 25 18 14 8 358 353 353 352 352 350 346 341 338 337 337 335 332 329 330 325 310 294 279 273 278 280 282 282 280 274 272 270 268 267
61 66 61 48 47 35 56 48 44 49 48 51 52 43 47 45 37 67 95 98 50 11 25 21 29 23 33 40 39 33 30 23 27 25 24 17 19 18 9 9 16 17 18 23 27 18 4 351 346 344 338 333 334 329 322 323 326 327 326 319 312 308 304 298 291 286 282 280 281 283 282 279 274 270
62 66 68 54 42 43 64 49 44 46 45 52 53 45 46 44 27 41 68 75 54 16 13 42 34 21 29 38 23 33 26 20 14 20 22 16 19 16 8 2 10 11 9 13 18 14 8 1 355 349 340 338 338 332 325 319 316 313 308 315 314 311 305 291 282 278 276 275 276 277 278 279 281 279
61 71 73 56 48 49 68 52 48 41 48 50 55 41 46 45 34 17 77 71 80 45 6 22 13 32 31 48 20 29 22 17 10 16 15 18 18 15 4 2 1 4 3 4 7 5 1 355 351 347 344 346 345 339 329 324 324 322 315 312 308 303 301 298 295 287 278 274 274 275 277 279 280 282
71 71 70 60 53 56 63 51 45 41 49 52 62 55 45 51 36 29 45 91 67 58 33 6 24 20 27 47 17 13 23 21 15 16 10 9 6 10 4 1 356 357 357 358 357 356 354 350 346 344 343 343 344 342 337 331 327 325 322 320 315 309 303 298 292 293 293 289 283 279 278 284 289 289
83 85 80 60 61 64 73 53 49 37 46 54 62 61 49 56 46 31 40 47 100 77 64 12 28 2 27 32 24 12 18 22 18 15 354 12 15 7 5 359 355 352 353 354 354 351 349 347 344 343 343 346 349 348 344 336 332 332 330 322 315 310 305 300 295 293 291 292 291 289 289 292 288 288
104 95 96 95 78 75 80 57 54 44 57 56 67 68 55 62 54 53 50 47 57 72 59 25 13 9 27 21 27 17 17 10 17 10 14 11 5 3 360 354 354 353 354 352 349 348 349 349 346 345 350 358 358 1 2 360 351 343 337 332 324 315 308 302 297 293 289 289 286 283 278 277 280 282
112 107 102 94 86 78 82 79 67 55 59 60 69 71 68 65 62 60 53 55 59 67 65 58 16 14 24 8 11 10 22 25 13 15 3 359 7 8 4 358 354 357 356 352 348 350 354 355 0 7 9 4 1 2 2 2 359 353 348 342 332 323 314 305 300 295 290 284 282 279 276 272 273 277
106 103 101 92 85 81 82 78 79 84 64 70 69 80 88 77 75 67 58 56 62 66 64 44 55 23 353 25 7 339 354 19 41 12 3 17 17 17 13 354 352 360 355 350 351 355 357 4 9 8 9 2 360 357 355 356 352 351 350 348 344 336 326 315 304 295 292 289 284 279 276 276 275 272
104 104 107 115 104 101 98 93 78 91 103 86 71 50 90 86 79 70 64 59 62 61 61 62 35 16 347 336 313 295 349 35 28 36 21 1 352 354 360 5 342 348 2 357 351 355 360 2 3 2 360 359 355 352 351 346 348 351 352 352 352 351 348 339 325 312 302 294 288 282 278 276 276 275
108 102 100 108 138 107 88 75 68 75 102 107 87 48 89 86 79 67 57 52 47 40 48 28 23 22 11 355 0 357 15 20 356 326 30 4 348 340 344 346 347 8 359 342 350 355 9 359 2 356 356 351 348 345 346 344 347 347 348 350 349 351 355 353 343 326 313 305 300 294 286 281 277 276
88 83 76 78 84 79 75 70 70 68 69 88 100 109 86 81 71 67 58 45 36 42 33 14 15 21 354 336 339 330 300 271 328 16 20 16 340 349 342 328 345 350 6 354 354 345 360 3 352 1 354 347 343 335 338 336 336 339 341 344 346 349 351 350 346 338 324 310 302 300 297 291 283 276
116 93 77 61 60 59 52 52 58 58 63 63 64 66 69 72 84 77 61 48 59 48 34 337 14 20 346 329 323 302 291 301 20 1 38 27 4 1 356 341 325 354 21 356 347 337 342 359 354 349 351 341 337 329 328 326 331 334 332 337 346 349 349 349 347 346 342 331 313 301 298 297 294 286
125 112 89 63 54 63 69 66 55 59 59 61 57 62 91 84 68 68 84 71 43 42 34 11 355 11 344 317 321 319 328 326 23 24 51 50 25 348 343 315 320 301 3 354 347 327 320 350 347 346 341 338 332 323 320 323 328 329 321 336 348 348 348 347 345 344 346 348 341 324 309 304 302 297
134 125 107 92 56 36 57 60 59 64 58 60 69 69 86 101 93 83 75 61 69 128 78 28 359 7 323 330 323 338 329 47 64 11 26 15 3 324 301 288 284 306 346 10 336 326 320 342 342 336 330 329 328 323 324 324 327 325 322 342 344 344 343 343 342 341 343 346 345 339 327 313 306 301
151 139 125 113 92 60 58 62 72 74 72 67 63 63 65 69 67 63 54 54 53 65 98 77 359 312 345 307 296 328 333 96 90 84 38 309 354 315 292 279 274 285 326 320 305 316 314 321 334 326 320 323 321 317 315 322 329 328 328 335 336 337 338 338 338 338 338 340 339 336 330 321 311 305
147 132 119 114 116 106 79 78 99 91 90 82 70 59 46 45 43 48 44 28 14 16 11 343 270 285 322 300 296 247 122 117 149 157 165 215 250 264 290 319 286 297 295 334 27 330 308 301 323 296 302 313 313 306 313 322 333 332 327 325 325 325 331 334 334 334 335 335 336 334 332 329 323 313
136 125 121 118 121 116 105 84 92 114 116 88 78 63 43 33 24 29 48 60 5 40 294 299 312 316 295 324 268 159 130 126 148 103 28 46 43 14 347 309 299 304 310 79 54 319 306 287 290 291 296 304 303 307 309 321 328 325 322 321 318 316 320 328 330 332 334 336 336 338 338 336 331 323
132 126 121 126 131 131 131 141 125 123 109 94 85 80 66 43 37 5 343 351 360 2 5 2 358 1 6 38 247 118 123 117 124 51 23 339 4 358 335 307 330 306 306 299 35 315 297 297 293 296 294 300 297 303 307 315 318 318 318 318 316 312 312 319 325 330 335 336 338 340 343 343 341 329
135 140 141 140 142 147 159 160 141 132 111 101 107 96 73 46 25 354 349 350 347 356 9 3 356 4 17 66 34 106 107 86 64 57 1 302 44 334 331 321 320 298 317 308 2 349 301 309 305 301 282 288 264 284 297 316 316 318 318 317 317 310 306 312 321 330 334 334 337 342 345 347 348 339
136 137 140 148 153 161 172 166 148 137 121 124 130 129 97 64 24 303 315 334 351 3 3 353 353 355 1 24 43 341 310 327 342 323 335 319 37 322 324 332 327 343 310 316 17 357 318 338 320 335 324 322 285 268 312 315 313 311 311 314 314 305 304 311 317 332 333 332 335 342 346 347 353 343
117 126 138 149 160 162 173 184 164 156 145 137 146 118 108 100 316 270 315 315 23 26 4 338 357 12 7 12 358 344 342 339 347 349 349 321 145 65 4 346 357 318 283 283 6 351 273 302 314 324 310 315 323 328 322 316 312 307 307 315 316 309 310 313 325 331 329 330 335 342 345 344 350 346
145 152 159 172 172 172 187 199 191 173 169 155 151 156 159 195 135 55 347 347 25 22 355 0 13 26 10 4 359 1 1 357 351 357 353 9 28 38 11 353 346 308 282 288 326 352 301 308 300 315 303 283 283 311 312 304 302 301 307 313 311 308 314 314 330 318 325 330 336 340 342 340 340 346
155 164 177 183 190 188 201 209 214 197 179 177 157 192 210 218 43 320 11 25 12 20 16 28 38 22 12 6 5 3 4 357 353 2 359 355 354 3 359 340 324 320 304 304 317 306 326 315 316 321 314 321 313 312 315 312 296 296 304 307 307 303 312 308 314 322 329 326 333 337 332 334 338 338
169 173 184 193 186 194 206 215 223 218 190 175 210 215 230 71 275 312 73 90 48 42 43 56 41 21 17 18 8 6 1 353 355 1 358 2 7 0 351 342 320 294 291 304 309 317 331 301 328 333 326 323 316 320 312 314 313 309 307 309 312 308 314 313 340 335 327 330 327 331 334 332 336 335
164 175 189 195 186 196 209 215 224 218 195 211 238 258 199 227 203 109 101 67 58 69 64 50 38 26 19 25 22 5 345 346 342 346 359 359 353 355 343 337 334 331 330 333 332 337 344 339 333 333 326 321 318 316 313 304 299 305 306 303 303 300 312 338 346 335 334 332 332 332 335 332 329 333
163 181 185 191 198 203 205 197 197 197 208 227 255 267 246 152 111 108 92 91 86 73 65 67 56 37 25 48 31 319 340 342 0 0 345 345 343 342 342 336 334 332 333 330 334 341 348 340 327 323 323 316 311 304 303 302 307 306 306 313 312 310 308 335 333 322 316 322 320 323 317 311 315 322
165 176 188 197 203 197 201 194 195 171 174 212 243 243 112 116 120 114 108 103 96 101 97 95 88 64 288 17 341 322 16 23 353 339 333 340 339 341 343 346 339 327 320 316 318 327 331 326 318 317 313 310 308 304 302 307 307 301 304 305 299 294 286 334 318 315 315 314 314 311 301 295 297 311
162 184 187 190 188 192 201 185 120 98 93 83 74 70 86 105 113 117 121 130 123 126 130 142 149 259 326 265 351 24 19 355 333 336 332 340 332 340 337 338 321 322 309 301 297 307 313 313 313 317 316 311 308 302 300 300 298 305 308 310 327 322 315 304 300 309 304 306 309 303 300 306 308 305
172 171 172 165 199 173 87 78 79 75 75 85 100 97 105 116 120 118 110 93 98 122 148 142 149 50 8 46 29 26 7 337 327 345 344 343 331 330 329 341 328 316 316 320 319 311 317 316 314 313 307 303 303 302 304 304 303 308 312 319 317 305 315 324 323 316 312 314 314 316 314 311 310 307
122 114 114 96 72 87 107 96 93 94 94 86 98 117 117 116 120 124 125 120 128 152 128 111 107 80 64 37 25 18 350 338 332 333 341 326 332 320 333 333 322 328 330 329 332 330 325 317 311 309 303 301 294 297 309 318 321 326 322 322 324 321 321 318 317 317 321 324 314 315 318 311 301 302
124 127 119 127 127 115 113 122 128 140 134 125 100 87 118 122 110 99 100 122 151 170 147 136 100 89 60 28 14 356 342 329 333 321 335 321 322 332 332 329 323 317 325 326 328 327 325 320 316 309 304 294 290 287 309 317 323 327 325 323 320 314 313 316 322 328 330 320 315 319 321 316 309 303
126 132 125 128 122 128 130 141 155 151 133 126 111 108 110 92 99 121 127 155 177 164 114 83 85 56 45 25 360 354 344 331 321 324 324 329 334 335 332 331 326 330 330 328 327 327 326 324 325 322 319 310 313 295 269 337 333 321 320 314 314 312 315 326 328 327 325 318 327 322 314 308 310 309
126 135 135 132 137 140 137 154 150 138 132 138 127 126 100 75 86 127 156 180 107 69 65 61 50 47 44 28 347 333 328 329 326 334 332 338 335 326 328 324 322 320 321 318 318 319 323 322 328 329 330 333 330 325 315 23 314 312 311 313 319 318 321 323 320 317 318 318 319 317 310 310 310 316
147 150 142 147 155 150 149 160 147 146 138 129 122 118 123 121 120 106 80 83 84 79 88 84 78 82 67 342 331 325 331 346 340 336 331 323 320 324 328 324 322 317 316 314 311 312 317 318 322 323 326 325 326 319 310 318 308 299 287 310 312 315 318 318 319 317 319 317 312 308 303 305 305 309
157 155 148 156 160 157 147 150 139 133 128 124 123 115 113 114 103 90 93 87 93 97 91 99 112 115 19 325 11 345 347 346 343 333 323 325 333 336 327 317 317 317 313 308 311 308 309 307 310 314 320 319 317 319 319 320 317 306 318 313 305 309 312 311 313 314 313 312 301 302 301 299 299 302
150 152 155 158 162 149 149 158 145 138 137 133 128 132 126 112 110 99 95 106 116 118 118 105 111 107 15 331 1 9 2 347 338 325 323 326 324 317 316 317 317 317 319 316 318 310 312 307 310 311 310 305 306 311 311 311 309 312 316 318 305 304 306 307 303 304 305 309 305 299 284 270 272 276
164 152 154 148 159 154 149 144 136 140 138 141 141 140 124 122 117 117 117 130 130 134 127 128 138 13 352 16 26 12 359 338 319 314 313 310 307 303 304 314 315 315 317 316 319 321 318 311 311 312 307 292 285 294 301 295 286 290 296 309 310 306 302 305 305 309 306 302 304 307 308 313 313 313
161 152 165 155 153 152 144 143 140 137 139 143 130 118 116 123 121 130 142 149 145 131 117 161 281 29 35 40 32 33 329 314 307 305 304 303 302 307 314 318 318 320 320 314 314 314 311 308 299 294 289 283 298 306 301 305 308 312 311 308 307 310 310 308 301 300 298 303 303 304 305 310 311 314
167 166 164 160 150 154 140 140 141 137 143 139 127 122 118 120 131 138 138 146 138 131 106 65 60 96 86 348 330 339 328 310 307 305 302 303 305 307 314 322 317 319 319 312 312 306 300 300 299 298 298 311 316 319 311 309 306 309 310 310 310 312 306 297 299 296 291 294 300 302 301 304 303 300
164 157 157 159 137 136 136 139 143 140 142 129 122 124 123 123 127 132 147 148 134 104 99 99 114 124 16 321 323 315 312 305 303 300 300 301 303 308 311 311 307 305 302 298 297 297 301 304 302 303 311 312 308 306 299 302 301 302 307 311 314 316 307 304 302 297 292 286 282 275 277 282 305 299
156 148 147 143 135 135 138 137 140 136 131 127 129 129 131 140 149 170 153 120 109 118 133 129 140 62 351 319 311 311 306 297 298 300 302 300 300 297 296 300 301 303 303 301 303 305 306 304 303 309 311 310 312 308 304 307 306 306 304 303 305 313 315 314 306 297 291 282 278 276 268 262 255 259
148 142 139 139 135 137 138 136 133 131 124 125 129 133 141 146 157 161 128 122 126 130 129 131 103 355 313 308 322 316 303 305 308 300 294 294 294 295 294 297 303 304 304 304 307 306 307 303 301 301 296 298 302 298 296 295 298 303 304 309 311 312 309 313 316 317 315 312 282 282 290 291 290 286